CSN3272 ZHCC-ZGSZ

Flight info

Callsign CSN3272
Flight time 2h 24m
Altitude 38100
Route DUD9W DUDBI W37 OMBEB R473 NOLON W90 POU W7 SAREX SAREX3
Aircraft B738/M-SDE2E3FGHIRWXY/LB1

Departure

Time 2026-04-28 10:01
Airport Zhengzhou Xinzheng International Airport (ZHCC)

Arrival

Time 2026-04-28 12:25
Airport Shenzhen Bao'an International Airport (ZGSZ)
Time Latitude Longitude Altitude Speed Heading
2026-04-28 09:35 34.52390 113.84779 504 ft 0 kts 22°
2026-04-28 09:43 34.52389 113.84778 504 ft 2 kts 22°
2026-04-28 09:44 34.52366 113.84767 504 ft 2 kts 22°
2026-04-28 09:44 34.52346 113.84762 504 ft 4 kts 332°
2026-04-28 09:44 34.52328 113.84783 504 ft 4 kts 298°
2026-04-28 09:44 34.52320 113.84805 504 ft 0 kts 292°
2026-04-28 09:53 34.52331 113.84773 504 ft 12 kts 292°
2026-04-28 09:53 34.52307 113.84685 504 ft 16 kts 205°
2026-04-28 09:54 34.52162 113.84613 504 ft 29 kts 202°
2026-04-28 09:54 34.52054 113.84529 504 ft 7 kts 274°
2026-04-28 09:54 34.52076 113.84473 504 ft 0 kts 293°
2026-04-28 09:55 34.52078 113.84467 504 ft 4 kts 293°
2026-04-28 09:55 34.52103 113.84396 504 ft 17 kts 292°
2026-04-28 09:56 34.52164 113.84214 504 ft 25 kts 292°
2026-04-28 09:56 34.52228 113.84024 504 ft 23 kts 293°
2026-04-28 09:56 34.52289 113.83847 504 ft 23 kts 292°
2026-04-28 09:56 34.52348 113.83674 504 ft 22 kts 291°
2026-04-28 09:57 34.52406 113.83502 504 ft 23 kts 293°
2026-04-28 09:57 34.52474 113.83303 504 ft 28 kts 292°
2026-04-28 09:57 34.52553 113.83071 504 ft 32 kts 292°
2026-04-28 09:57 34.52643 113.82809 504 ft 35 kts 292°
2026-04-28 09:58 34.52686 113.82614 504 ft 20 kts 284°
2026-04-28 09:58 34.52644 113.82479 504 ft 19 kts 199°
2026-04-28 09:58 34.52622 113.82469 504 ft 0 kts 202°
2026-04-28 09:59 34.52620 113.82468 504 ft 1 kts 202°
2026-04-28 09:59 34.52615 113.82466 504 ft 0 kts 203°
2026-04-28 09:59 34.52614 113.82465 504 ft 0 kts 203°
2026-04-28 09:59 34.52607 113.82462 504 ft 4 kts 203°
2026-04-28 10:00 34.52544 113.82435 503 ft 14 kts 182°
2026-04-28 10:00 34.52472 113.82548 503 ft 23 kts 112°
2026-04-28 10:00 34.52333 113.82956 503 ft 93 kts 112°
2026-04-28 10:00 34.51981 113.83985 511 ft 167 kts 112°
2026-04-28 10:01 34.51564 113.85379 1233 ft 180 kts 112°
2026-04-28 10:01 34.51077 113.86713 2516 ft 164 kts 124°
2026-04-28 10:01 34.50211 113.87793 2944 ft 193 kts 141°
2026-04-28 10:01 34.49135 113.88924 3003 ft 220 kts 137°
2026-04-28 10:02 34.47989 113.90220 3412 ft 223 kts 137°
2026-04-28 10:02 34.46872 113.91499 4037 ft 227 kts 136°
2026-04-28 10:02 34.45724 113.92826 4686 ft 231 kts 135°
2026-04-28 10:02 34.44537 113.94208 5259 ft 237 kts 134°
2026-04-28 10:03 34.43354 113.95589 5873 ft 241 kts 133°
2026-04-28 10:03 34.42117 113.97040 6417 ft 248 kts 133°
2026-04-28 10:03 34.40882 113.98474 7031 ft 250 kts 133°
2026-04-28 10:03 34.39590 113.99897 7651 ft 253 kts 135°
2026-04-28 10:04 34.38253 114.01353 8236 ft 257 kts 134°
2026-04-28 10:04 34.36939 114.02789 8807 ft 260 kts 134°
2026-04-28 10:04 34.35590 114.04265 9367 ft 264 kts 134°
2026-04-28 10:04 34.34212 114.05777 9804 ft 272 kts 133°
2026-04-28 10:05 34.32787 114.07341 9833 ft 281 kts 134°
2026-04-28 10:05 34.31167 114.08697 9843 ft 287 kts 152°
2026-04-28 10:05 34.29325 114.09633 9854 ft 287 kts 153°
2026-04-28 10:05 34.27510 114.10643 9847 ft 287 kts 151°
2026-04-28 10:06 34.25712 114.11681 9847 ft 286 kts 151°
2026-04-28 10:06 34.23924 114.12720 9989 ft 285 kts 151°
2026-04-28 10:06 34.22119 114.13764 10412 ft 292 kts 151°
2026-04-28 10:06 34.20251 114.14844 10752 ft 303 kts 152°
2026-04-28 10:07 34.18332 114.15949 11187 ft 309 kts 152°
2026-04-28 10:07 34.16350 114.17094 11486 ft 322 kts 152°
2026-04-28 10:07 34.14314 114.18268 11931 ft 327 kts 153°
2026-04-28 10:07 34.12232 114.19467 12292 ft 336 kts 153°
2026-04-28 10:08 34.10120 114.20682 12896 ft 334 kts 154°
2026-04-28 10:08 34.08037 114.21879 13523 ft 331 kts 155°
2026-04-28 10:08 34.05963 114.23071 14114 ft 329 kts 157°
2026-04-28 10:08 34.03903 114.24254 14694 ft 327 kts 158°
2026-04-28 10:09 34.01851 114.25432 15222 ft 327 kts 160°
2026-04-28 10:09 33.99801 114.26609 15759 ft 325 kts 160°
2026-04-28 10:09 33.97775 114.27775 16343 ft 320 kts 162°
2026-04-28 10:09 33.95776 114.28924 16892 ft 317 kts 163°
2026-04-28 10:10 33.93785 114.30063 17380 ft 316 kts 164°
2026-04-28 10:10 33.91810 114.31194 17883 ft 313 kts 164°
2026-04-28 10:10 33.89850 114.32349 18406 ft 313 kts 166°
2026-04-28 10:10 33.87895 114.33490 18889 ft 311 kts 166°
2026-04-28 10:11 33.85935 114.34613 19237 ft 313 kts 169°
2026-04-28 10:11 33.83960 114.35722 19634 ft 313 kts 168°
2026-04-28 10:11 33.81990 114.36838 20010 ft 313 kts 168°
2026-04-28 10:11 33.80019 114.37947 20419 ft 312 kts 169°
2026-04-28 10:12 33.78051 114.39072 20728 ft 315 kts 170°
2026-04-28 10:12 33.76068 114.40192 21096 ft 314 kts 171°
2026-04-28 10:12 33.74092 114.41337 21417 ft 317 kts 170°
2026-04-28 10:12 33.72104 114.42483 21741 ft 317 kts 171°
2026-04-28 10:13 33.70101 114.43614 22057 ft 320 kts 172°
2026-04-28 10:13 33.68029 114.44767 22080 ft 336 kts 171°
2026-04-28 10:13 33.66599 114.45559 22125 ft 349 kts 171°
2026-04-28 10:13 33.64346 114.46812 22268 ft 366 kts 170°
2026-04-28 10:14 33.61169 114.48597 22423 ft 388 kts 169°
2026-04-28 10:14 33.58684 114.50005 22538 ft 402 kts 169°
2026-04-28 10:14 33.56990 114.50968 22601 ft 412 kts 168°
2026-04-28 10:14 33.54370 114.52490 22681 ft 423 kts 168°
2026-04-28 10:15 33.51674 114.54002 22729 ft 432 kts 168°
2026-04-28 10:15 33.48918 114.55554 22794 ft 443 kts 168°
2026-04-28 10:15 33.46101 114.57153 22858 ft 452 kts 167°
2026-04-28 10:15 33.43240 114.58833 22909 ft 461 kts 166°
2026-04-28 10:16 33.39369 114.60977 23016 ft 466 kts 168°
2026-04-28 10:16 33.37373 114.62081 23157 ft 469 kts 167°
2026-04-28 10:16 33.34418 114.63761 23399 ft 471 kts 167°
2026-04-28 10:16 33.31495 114.65440 23632 ft 473 kts 167°
2026-04-28 10:17 33.28524 114.67136 23847 ft 474 kts 167°
2026-04-28 10:17 33.25502 114.68843 24065 ft 475 kts 168°
2026-04-28 10:17 33.22510 114.70502 24274 ft 472 kts 170°
2026-04-28 10:17 33.19450 114.71508 24365 ft 442 kts 188°
2026-04-28 10:18 33.16520 114.71299 24557 ft 420 kts 200°
2026-04-28 10:18 33.13608 114.70827 24790 ft 425 kts 197°
2026-04-28 10:18 33.10644 114.70517 24927 ft 430 kts 196°
2026-04-28 10:18 33.07650 114.70250 25087 ft 432 kts 196°
2026-04-28 10:19 33.04653 114.69983 25214 ft 434 kts 196°
2026-04-28 10:19 33.01626 114.69696 25304 ft 437 kts 196°
2026-04-28 10:19 32.98606 114.69408 25607 ft 434 kts 197°
2026-04-28 10:19 32.95606 114.69118 25935 ft 432 kts 197°
2026-04-28 10:20 32.92613 114.68822 26161 ft 432 kts 197°
2026-04-28 10:20 32.89619 114.68524 26368 ft 433 kts 197°
2026-04-28 10:20 32.86619 114.68227 26633 ft 432 kts 197°
2026-04-28 10:20 32.83624 114.67943 26906 ft 432 kts 197°
2026-04-28 10:21 32.80627 114.67662 27161 ft 431 kts 197°
2026-04-28 10:21 32.77639 114.67384 27459 ft 430 kts 197°
2026-04-28 10:21 32.74659 114.67107 27813 ft 428 kts 197°
2026-04-28 10:21 32.71698 114.66831 28105 ft 428 kts 198°
2026-04-28 10:22 32.68723 114.66549 28312 ft 429 kts 198°
2026-04-28 10:22 32.65746 114.66269 28587 ft 429 kts 198°
2026-04-28 10:22 32.62771 114.65989 28928 ft 428 kts 198°
2026-04-28 10:22 32.59815 114.65715 29323 ft 425 kts 198°
2026-04-28 10:23 32.56871 114.65441 29656 ft 424 kts 198°
2026-04-28 10:23 32.53931 114.65166 29955 ft 424 kts 198°
2026-04-28 10:23 32.50996 114.64890 30301 ft 422 kts 198°
2026-04-28 10:23 32.48076 114.64617 30699 ft 419 kts 199°
2026-04-28 10:24 32.45183 114.64349 31162 ft 415 kts 199°
2026-04-28 10:24 32.42320 114.64081 31560 ft 412 kts 199°
2026-04-28 10:24 32.39469 114.63815 31999 ft 409 kts 199°
2026-04-28 10:24 32.36645 114.63551 32424 ft 406 kts 200°
2026-04-28 10:25 32.33841 114.63283 32800 ft 403 kts 200°
2026-04-28 10:25 32.31061 114.63016 33278 ft 398 kts 200°
2026-04-28 10:25 32.28322 114.62751 33721 ft 394 kts 200°
2026-04-28 10:25 32.25604 114.62486 34139 ft 389 kts 200°
2026-04-28 10:26 32.22917 114.62226 34550 ft 386 kts 201°
2026-04-28 10:26 32.20250 114.61968 34855 ft 384 kts 201°
2026-04-28 10:26 32.17589 114.61704 35121 ft 384 kts 201°
2026-04-28 10:26 32.14937 114.61443 35455 ft 381 kts 201°
2026-04-28 10:27 32.12293 114.61169 35587 ft 385 kts 187°
2026-04-28 10:27 32.09613 114.60893 35451 ft 397 kts 193°
2026-04-28 10:27 32.06895 114.60692 36106 ft 386 kts 186°
2026-04-28 10:27 32.04196 114.60446 36167 ft 393 kts 185°
2026-04-28 10:28 31.98677 114.59881 36296 ft 403 kts 185°
2026-04-28 10:29 31.90110 114.59032 36466 ft 420 kts 185°
2026-04-28 10:29 31.84206 114.58464 36599 ft 430 kts 185°
2026-04-28 10:30 31.78189 114.57888 36717 ft 439 kts 185°
2026-04-28 10:30 31.72036 114.57296 36792 ft 448 kts 185°
2026-04-28 10:31 31.65772 114.56694 36858 ft 456 kts 185°
2026-04-28 10:31 31.62604 114.56388 36977 ft 457 kts 185°
2026-04-28 10:31 31.59438 114.56082 37217 ft 456 kts 185°
2026-04-28 10:31 31.56277 114.55776 37468 ft 454 kts 185°
2026-04-28 10:32 31.53133 114.55470 37679 ft 454 kts 185°
2026-04-28 10:32 31.49981 114.55165 37850 ft 454 kts 185°
2026-04-28 10:32 31.46832 114.54864 38021 ft 454 kts 185°
2026-04-28 10:32 31.43683 114.54560 38153 ft 455 kts 185°
2026-04-28 10:33 31.40515 114.54253 38143 ft 457 kts 185°
2026-04-28 10:33 31.34190 114.53642 38133 ft 455 kts 185°
2026-04-28 10:34 31.27911 114.53038 38150 ft 451 kts 185°
2026-04-28 10:34 31.21849 114.51422 38153 ft 447 kts 204°
2026-04-28 10:35 31.16259 114.48242 38141 ft 447 kts 206°
2026-04-28 10:35 31.10669 114.45075 38154 ft 447 kts 205°
2026-04-28 10:36 31.05039 114.41942 38146 ft 449 kts 205°
2026-04-28 10:36 30.99380 114.38809 38147 ft 451 kts 205°
2026-04-28 10:36 30.96551 114.37248 38225 ft 442 kts 216°
2026-04-28 10:37 30.93816 114.35744 38052 ft 435 kts 212°
2026-04-28 10:37 30.91159 114.34297 38190 ft 407 kts 216°
2026-04-28 10:37 30.88665 114.32993 38157 ft 379 kts 217°
2026-04-28 10:37 30.86334 114.31780 38117 ft 357 kts 217°
2026-04-28 10:38 30.84121 114.30622 38124 ft 339 kts 218°
2026-04-28 10:38 30.82018 114.29518 38143 ft 327 kts 218°
2026-04-28 10:38 30.79954 114.28409 38148 ft 328 kts 219°
2026-04-28 10:39 30.75775 114.26122 38158 ft 336 kts 218°
2026-04-28 10:39 30.71498 114.23795 38152 ft 343 kts 218°
2026-04-28 10:40 30.67131 114.21431 38156 ft 349 kts 218°
2026-04-28 10:40 30.62706 114.19043 38139 ft 352 kts 218°
2026-04-28 10:41 30.58269 114.16648 38151 ft 355 kts 218°
2026-04-28 10:41 30.53813 114.14162 38150 ft 356 kts 218°
2026-04-28 10:42 30.49304 114.11720 38151 ft 358 kts 217°
2026-04-28 10:42 30.44781 114.09297 38148 ft 358 kts 217°
2026-04-28 10:43 30.40258 114.06868 38149 ft 358 kts 217°
2026-04-28 10:43 30.35746 114.04438 38133 ft 358 kts 217°
2026-04-28 10:44 30.31228 114.02014 38149 ft 358 kts 217°
2026-04-28 10:44 30.26717 113.99591 38151 ft 357 kts 217°
2026-04-28 10:45 30.22204 113.97174 38153 ft 358 kts 217°
2026-04-28 10:45 30.17682 113.94763 38142 ft 358 kts 217°
2026-04-28 10:46 30.13150 113.92347 38132 ft 359 kts 217°
2026-04-28 10:46 30.08623 113.89935 38133 ft 358 kts 217°
2026-04-28 10:47 30.04095 113.87526 38147 ft 358 kts 217°
2026-04-28 10:47 29.99574 113.85122 38145 ft 358 kts 217°
2026-04-28 10:48 29.95050 113.82718 38126 ft 358 kts 217°
2026-04-28 10:48 29.90554 113.80331 38129 ft 358 kts 216°
2026-04-28 10:48 29.88195 113.79295 38123 ft 370 kts 209°
2026-04-28 10:49 29.85669 113.78572 38123 ft 377 kts 205°
2026-04-28 10:49 29.80368 113.78000 38129 ft 384 kts 198°
2026-04-28 10:50 29.75045 113.77657 38114 ft 383 kts 199°
2026-04-28 10:50 29.69743 113.77293 38107 ft 382 kts 199°
2026-04-28 10:51 29.64448 113.76928 38112 ft 382 kts 199°
2026-04-28 10:51 29.59136 113.76558 38108 ft 383 kts 198°
2026-04-28 10:52 29.53801 113.76186 38100 ft 385 kts 198°
2026-04-28 10:52 29.48436 113.75816 38051 ft 388 kts 198°
2026-04-28 10:53 29.43050 113.75441 38104 ft 389 kts 198°
2026-04-28 10:53 29.37630 113.75071 38076 ft 392 kts 197°
2026-04-28 10:54 29.32229 113.74702 38052 ft 392 kts 197°
2026-04-28 10:54 29.26791 113.74327 38067 ft 391 kts 197°
2026-04-28 10:55 29.21332 113.74040 38050 ft 398 kts 193°
2026-04-28 10:55 29.15764 113.74217 38050 ft 402 kts 192°
2026-04-28 10:56 29.10180 113.74444 38037 ft 401 kts 192°
2026-04-28 10:56 29.04613 113.74631 38027 ft 400 kts 192°
2026-04-28 10:57 28.99059 113.74794 38030 ft 399 kts 192°
2026-04-28 10:57 28.93500 113.74947 38019 ft 400 kts 192°
2026-04-28 10:58 28.87945 113.75096 38036 ft 401 kts 191°
2026-04-28 10:58 28.82354 113.75263 38024 ft 402 kts 191°
2026-04-28 10:59 28.76745 113.75414 38009 ft 404 kts 191°
2026-04-28 10:59 28.71146 113.75436 38004 ft 398 kts 195°
2026-04-28 11:00 28.65636 113.75003 38016 ft 397 kts 196°
2026-04-28 11:00 28.60113 113.74528 38006 ft 399 kts 195°
2026-04-28 11:01 28.54552 113.74095 38005 ft 401 kts 195°
2026-04-28 11:01 28.49912 113.73757 38000 ft 403 kts 195°
2026-04-28 11:02 28.43371 113.73288 37988 ft 404 kts 195°
2026-04-28 11:02 28.38715 113.72950 38025 ft 402 kts 195°
2026-04-28 11:03 28.32178 113.72475 37966 ft 404 kts 195°
2026-04-28 11:03 28.27518 113.72135 37987 ft 405 kts 195°
2026-04-28 11:04 28.21894 113.71725 37990 ft 406 kts 195°
2026-04-28 11:04 28.16253 113.71279 37990 ft 407 kts 195°
2026-04-28 11:05 28.10593 113.70832 37992 ft 408 kts 195°
2026-04-28 11:05 28.04923 113.70368 37991 ft 409 kts 195°
2026-04-28 11:06 27.99253 113.69875 37979 ft 408 kts 195°
2026-04-28 11:06 27.93583 113.69352 37992 ft 409 kts 195°
2026-04-28 11:07 27.87907 113.68828 37985 ft 410 kts 195°
2026-04-28 11:07 27.82215 113.68316 37991 ft 410 kts 195°
2026-04-28 11:08 27.76526 113.67803 37992 ft 410 kts 195°
2026-04-28 11:08 27.70839 113.67291 37991 ft 410 kts 195°
2026-04-28 11:09 27.65175 113.66778 37986 ft 410 kts 195°
2026-04-28 11:09 27.59432 113.66507 37988 ft 415 kts 192°
2026-04-28 11:10 27.53650 113.66430 37993 ft 416 kts 192°
2026-04-28 11:10 27.47870 113.66338 37994 ft 415 kts 192°
2026-04-28 11:11 27.42088 113.66221 38003 ft 416 kts 192°
2026-04-28 11:11 27.36315 113.66095 38008 ft 415 kts 192°
2026-04-28 11:12 27.30527 113.65971 38019 ft 417 kts 192°
2026-04-28 11:12 27.24705 113.65844 38018 ft 419 kts 191°
2026-04-28 11:13 27.18849 113.65773 38012 ft 426 kts 187°
2026-04-28 11:13 27.15864 113.66194 38011 ft 441 kts 178°
2026-04-28 11:13 27.12875 113.67095 38023 ft 446 kts 175°
2026-04-28 11:14 27.06882 113.68937 38025 ft 447 kts 175°
2026-04-28 11:14 27.00860 113.70749 38009 ft 449 kts 175°
2026-04-28 11:15 26.94816 113.72526 38015 ft 450 kts 176°
2026-04-28 11:15 26.88756 113.74310 38024 ft 451 kts 175°
2026-04-28 11:16 26.82675 113.76100 38009 ft 453 kts 175°
2026-04-28 11:16 26.76557 113.77903 38016 ft 456 kts 175°
2026-04-28 11:17 26.70454 113.79734 38009 ft 459 kts 174°
2026-04-28 11:17 26.64299 113.81695 38013 ft 461 kts 173°
2026-04-28 11:18 26.58075 113.83655 37704 ft 471 kts 173°
2026-04-28 11:18 26.54900 113.84656 37474 ft 475 kts 173°
2026-04-28 11:18 26.51712 113.85660 37221 ft 477 kts 173°
2026-04-28 11:18 26.48520 113.86655 36977 ft 475 kts 173°
2026-04-28 11:19 26.45326 113.87598 36732 ft 474 kts 174°
2026-04-28 11:19 26.42131 113.88514 36489 ft 474 kts 174°
2026-04-28 11:19 26.38928 113.89411 36231 ft 475 kts 174°
2026-04-28 11:19 26.35724 113.90322 35979 ft 476 kts 174°
2026-04-28 11:20 26.32494 113.91248 35747 ft 482 kts 173°
2026-04-28 11:20 26.29230 113.92188 35497 ft 487 kts 173°
2026-04-28 11:20 26.25975 113.93123 35260 ft 480 kts 171°
2026-04-28 11:20 26.22729 113.94057 35012 ft 483 kts 172°
2026-04-28 11:21 26.19457 113.95005 34759 ft 487 kts 172°
2026-04-28 11:21 26.16168 113.95950 34492 ft 488 kts 173°
2026-04-28 11:21 26.12867 113.96861 34284 ft 491 kts 172°
2026-04-28 11:21 26.09559 113.97841 34022 ft 494 kts 172°
2026-04-28 11:22 26.06236 113.98822 33772 ft 494 kts 172°
2026-04-28 11:22 26.02908 113.99787 33541 ft 494 kts 172°
2026-04-28 11:22 25.99588 114.00756 33286 ft 491 kts 172°
2026-04-28 11:22 25.96297 114.01727 33027 ft 487 kts 171°
2026-04-28 11:23 25.93035 114.02696 32769 ft 485 kts 172°
2026-04-28 11:23 25.89777 114.03664 32530 ft 485 kts 171°
2026-04-28 11:23 25.86518 114.04636 32284 ft 484 kts 172°
2026-04-28 11:23 25.83265 114.05592 32062 ft 486 kts 172°
2026-04-28 11:24 25.79984 114.06560 32031 ft 487 kts 172°
2026-04-28 11:24 25.73448 114.08497 32006 ft 484 kts 172°
2026-04-28 11:25 25.66949 114.10417 32006 ft 483 kts 172°
2026-04-28 11:25 25.60490 114.12320 32004 ft 483 kts 172°
2026-04-28 11:26 25.54004 114.14227 31997 ft 482 kts 172°
2026-04-28 11:26 25.47481 114.16142 32012 ft 482 kts 172°
2026-04-28 11:27 25.41049 114.18042 32005 ft 482 kts 172°
2026-04-28 11:27 25.34570 114.19951 31998 ft 482 kts 172°
2026-04-28 11:28 25.28091 114.21854 31991 ft 482 kts 172°
2026-04-28 11:28 25.21565 114.23767 31997 ft 482 kts 172°
2026-04-28 11:29 25.15138 114.25651 31993 ft 481 kts 171°
2026-04-28 11:29 25.08633 114.26767 32008 ft 466 kts 186°
2026-04-28 11:30 25.02310 114.25818 32012 ft 456 kts 198°
2026-04-28 11:30 24.92973 114.23710 31992 ft 457 kts 196°
2026-04-28 11:31 24.86724 114.22354 31994 ft 458 kts 196°
2026-04-28 11:31 24.80473 114.21003 32019 ft 458 kts 196°
2026-04-28 11:32 24.74220 114.19649 31985 ft 458 kts 196°
2026-04-28 11:32 24.67955 114.18301 31978 ft 459 kts 196°
2026-04-28 11:33 24.61685 114.16949 31976 ft 459 kts 195°
2026-04-28 11:33 24.55413 114.15593 31975 ft 459 kts 195°
2026-04-28 11:34 24.49142 114.14241 31981 ft 460 kts 195°
2026-04-28 11:34 24.42861 114.12889 31977 ft 460 kts 195°
2026-04-28 11:35 24.36594 114.11452 31971 ft 458 kts 200°
2026-04-28 11:35 24.30873 114.08574 31962 ft 451 kts 216°
2026-04-28 11:36 24.25596 114.04863 31970 ft 451 kts 215°
2026-04-28 11:36 24.20290 114.01182 31965 ft 452 kts 215°
2026-04-28 11:37 24.14970 113.97488 31959 ft 452 kts 215°
2026-04-28 11:37 24.09721 113.93701 31952 ft 451 kts 221°
2026-04-28 11:38 24.05066 113.89119 31961 ft 450 kts 225°
2026-04-28 11:38 24.00466 113.84477 31960 ft 450 kts 224°
2026-04-28 11:39 23.95856 113.79906 31962 ft 450 kts 224°
2026-04-28 11:39 23.91196 113.75327 31958 ft 450 kts 224°
2026-04-28 11:40 23.86535 113.70760 31956 ft 450 kts 224°
2026-04-28 11:40 23.81874 113.66198 31955 ft 448 kts 224°
2026-04-28 11:41 23.77327 113.61753 31941 ft 424 kts 224°
2026-04-28 11:41 23.75177 113.59655 31929 ft 406 kts 224°
2026-04-28 11:41 23.73110 113.57637 31947 ft 391 kts 225°
2026-04-28 11:42 23.71113 113.55706 31957 ft 377 kts 224°
2026-04-28 11:42 23.69180 113.53849 31940 ft 363 kts 225°
2026-04-28 11:42 23.67339 113.52035 31939 ft 350 kts 226°
2026-04-28 11:42 23.65566 113.50287 31955 ft 337 kts 226°
2026-04-28 11:43 23.63852 113.48605 31945 ft 325 kts 226°
2026-04-28 11:43 23.62200 113.46987 31931 ft 314 kts 226°
2026-04-28 11:43 23.60609 113.45432 31950 ft 303 kts 226°
2026-04-28 11:43 23.59043 113.43903 31958 ft 303 kts 226°
2026-04-28 11:44 23.55853 113.40790 31975 ft 313 kts 226°
2026-04-28 11:44 23.52252 113.38079 31967 ft 319 kts 212°
2026-04-28 11:45 23.48052 113.36364 31960 ft 324 kts 206°
2026-04-28 11:45 23.43800 113.34772 31962 ft 322 kts 207°
2026-04-28 11:46 23.39572 113.33183 31952 ft 320 kts 207°
2026-04-28 11:46 23.35375 113.31594 31956 ft 319 kts 207°
2026-04-28 11:47 23.31225 113.30016 31961 ft 318 kts 207°
2026-04-28 11:47 23.27050 113.28430 31964 ft 318 kts 208°
2026-04-28 11:48 23.22863 113.26836 31962 ft 319 kts 208°
2026-04-28 11:48 23.18662 113.25241 31967 ft 320 kts 208°
2026-04-28 11:49 23.14451 113.23643 31963 ft 321 kts 208°
2026-04-28 11:49 23.10222 113.22039 31964 ft 322 kts 208°
2026-04-28 11:50 23.06658 113.20735 31955 ft 327 kts 201°
2026-04-28 11:50 23.03547 113.20880 31985 ft 356 kts 171°
2026-04-28 11:50 23.01294 113.22164 31948 ft 379 kts 148°
2026-04-28 11:51 23.00019 113.23545 31976 ft 390 kts 132°
2026-04-28 11:51 22.98651 113.26138 32000 ft 398 kts 122°
2026-04-28 11:51 22.96157 113.31541 31971 ft 402 kts 122°
2026-04-28 11:52 22.93630 113.36934 31956 ft 405 kts 123°
2026-04-28 11:52 22.91034 113.42379 31957 ft 407 kts 123°
2026-04-28 11:53 22.88409 113.47858 31953 ft 407 kts 123°
2026-04-28 11:53 22.85845 113.53222 31949 ft 400 kts 123°
2026-04-28 11:54 22.83293 113.58589 31970 ft 402 kts 123°
2026-04-28 11:54 22.80726 113.63993 31970 ft 404 kts 123°
2026-04-28 11:55 22.78139 113.69424 31957 ft 407 kts 123°
2026-04-28 11:55 22.75550 113.74879 31957 ft 407 kts 123°
2026-04-28 11:56 22.72466 113.79827 31946 ft 379 kts 155°
2026-04-28 11:56 22.70192 113.80964 31956 ft 346 kts 182°
2026-04-28 11:56 22.67932 113.80892 31970 ft 311 kts 210°
2026-04-28 11:57 22.66156 113.79745 31978 ft 294 kts 233°
2026-04-28 11:57 22.64690 113.78175 31934 ft 302 kts 231°
2026-04-28 11:57 22.63203 113.76543 31264 ft 306 kts 239°
2026-04-28 11:57 22.62191 113.74496 30314 ft 314 kts 254°
2026-04-28 11:58 22.61603 113.72184 29533 ft 323 kts 259°
2026-04-28 11:58 22.61318 113.69768 29019 ft 324 kts 265°
2026-04-28 11:58 22.61190 113.67342 28683 ft 320 kts 266°
2026-04-28 11:58 22.61085 113.64976 28602 ft 309 kts 268°
2026-04-28 11:59 22.61390 113.62712 28493 ft 304 kts 286°
2026-04-28 11:59 22.62371 113.60708 28451 ft 301 kts 299°
2026-04-28 11:59 22.63776 113.59041 28374 ft 300 kts 311°
2026-04-28 11:59 22.65512 113.57781 28260 ft 302 kts 323°
2026-04-28 12:00 22.67505 113.56964 27942 ft 315 kts 340°
2026-04-28 12:00 22.69763 113.56845 27515 ft 331 kts 352°
2026-04-28 12:00 22.72064 113.56935 27169 ft 331 kts 352°
2026-04-28 12:00 22.74364 113.57026 26798 ft 331 kts 352°
2026-04-28 12:01 22.76662 113.57106 26473 ft 330 kts 352°
2026-04-28 12:01 22.78953 113.57179 26141 ft 328 kts 352°
2026-04-28 12:01 22.81244 113.57360 25792 ft 337 kts
2026-04-28 12:01 22.83397 113.58493 25413 ft 356 kts 38°
2026-04-28 12:02 22.84892 113.60636 25100 ft 360 kts 62°
2026-04-28 12:02 22.85972 113.63068 24823 ft 357 kts 63°
2026-04-28 12:02 22.87063 113.65452 24461 ft 358 kts 62°
2026-04-28 12:02 22.88086 113.67902 24040 ft 357 kts 75°
2026-04-28 12:03 22.88294 113.70547 23472 ft 351 kts 104°
2026-04-28 12:03 22.87564 113.73004 23025 ft 336 kts 127°
2026-04-28 12:03 22.86176 113.74951 22590 ft 319 kts 147°
2026-04-28 12:03 22.84382 113.76228 22150 ft 301 kts 167°
2026-04-28 12:04 22.82424 113.76791 21725 ft 284 kts 184°
2026-04-28 12:04 22.80509 113.76692 21306 ft 270 kts 200°
2026-04-28 12:04 22.78780 113.76040 20902 ft 259 kts 213°
2026-04-28 12:04 22.77261 113.75041 20511 ft 252 kts 223°
2026-04-28 12:05 22.76014 113.73749 20087 ft 245 kts 237°
2026-04-28 12:05 22.75164 113.72171 19700 ft 241 kts 244°
2026-04-28 12:05 22.74370 113.70575 19298 ft 240 kts 243°
2026-04-28 12:05 22.73580 113.68989 18901 ft 238 kts 243°
2026-04-28 12:06 22.72801 113.67416 18516 ft 236 kts 243°
2026-04-28 12:06 22.72032 113.65853 18137 ft 234 kts 244°
2026-04-28 12:06 22.71269 113.64302 17750 ft 232 kts 243°
2026-04-28 12:06 22.70620 113.62713 17330 ft 231 kts 257°
2026-04-28 12:07 22.70517 113.60977 16915 ft 232 kts 268°
2026-04-28 12:07 22.70690 113.59240 16553 ft 233 kts 277°
2026-04-28 12:07 22.71192 113.57555 16130 ft 238 kts 288°
2026-04-28 12:07 22.72057 113.55998 15739 ft 245 kts 300°
2026-04-28 12:08 22.73294 113.54710 15578 ft 246 kts 314°
2026-04-28 12:08 22.74808 113.53838 15620 ft 255 kts 333°
2026-04-28 12:08 22.76687 113.53700 15656 ft 291 kts
2026-04-28 12:08 22.78690 113.54368 15157 ft 317 kts 18°
2026-04-28 12:09 22.80747 113.55587 13988 ft 348 kts 27°
2026-04-28 12:09 22.82842 113.57027 12848 ft 365 kts 31°
2026-04-28 12:09 22.84862 113.58781 11874 ft 379 kts 46°
2026-04-28 12:09 22.86298 113.61128 11384 ft 371 kts 69°
2026-04-28 12:10 22.86856 113.63795 10850 ft 358 kts 93°
2026-04-28 12:10 22.86524 113.66395 10330 ft 341 kts 114°
2026-04-28 12:10 22.85474 113.68609 9804 ft 323 kts 134°
2026-04-28 12:10 22.83928 113.70262 9282 ft 305 kts 150°
2026-04-28 12:11 22.82092 113.71287 8758 ft 292 kts 165°
2026-04-28 12:11 22.80141 113.71706 8237 ft 282 kts 178°
2026-04-28 12:11 22.78201 113.71669 7725 ft 276 kts 189°
2026-04-28 12:11 22.76387 113.71158 7314 ft 265 kts 206°
2026-04-28 12:12 22.74787 113.70221 6932 ft 258 kts 208°
2026-04-28 12:12 22.73229 113.69300 6523 ft 252 kts 207°
2026-04-28 12:12 22.71697 113.68400 6120 ft 248 kts 208°
2026-04-28 12:12 22.70217 113.67512 5955 ft 235 kts 208°
2026-04-28 12:13 22.68844 113.66687 5914 ft 217 kts 208°
2026-04-28 12:13 22.67581 113.65909 5903 ft 203 kts 207°
2026-04-28 12:13 22.66462 113.65085 5903 ft 199 kts 225°
2026-04-28 12:13 22.65656 113.63845 5927 ft 205 kts 231°
2026-04-28 12:14 22.64880 113.62532 5930 ft 210 kts 237°
2026-04-28 12:14 22.64336 113.61044 5935 ft 216 kts 248°
2026-04-28 12:14 22.64044 113.59425 5924 ft 223 kts 257°
2026-04-28 12:14 22.64059 113.57727 5917 ft 229 kts 270°
2026-04-28 12:15 22.64461 113.56044 5922 ft 235 kts 283°
2026-04-28 12:15 22.65257 113.54469 5911 ft 243 kts 298°
2026-04-28 12:15 22.66414 113.53110 5916 ft 250 kts 313°
2026-04-28 12:15 22.67901 113.52087 5922 ft 257 kts 329°
2026-04-28 12:16 22.69623 113.51491 5919 ft 264 kts 346°
2026-04-28 12:16 22.71470 113.51340 5922 ft 268 kts 358°
2026-04-28 12:16 22.73324 113.51608 5908 ft 271 kts 17°
2026-04-28 12:16 22.75026 113.52468 5928 ft 270 kts 31°
2026-04-28 12:17 22.76674 113.53457 5924 ft 271 kts 30°
2026-04-28 12:17 22.78335 113.54431 5914 ft 273 kts 30°
2026-04-28 12:17 22.80011 113.55420 5925 ft 274 kts 30°
2026-04-28 12:17 22.81670 113.56418 5918 ft 275 kts 31°
2026-04-28 12:18 22.83349 113.57432 5903 ft 274 kts 33°
2026-04-28 12:18 22.84717 113.58790 5896 ft 261 kts 68°
2026-04-28 12:18 22.85223 113.60589 5938 ft 246 kts 85°
2026-04-28 12:18 22.85778 113.62381 5922 ft 255 kts 71°
2026-04-28 12:19 22.86573 113.64115 5919 ft 259 kts 70°
2026-04-28 12:19 22.87171 113.65973 5447 ft 261 kts 94°
2026-04-28 12:19 22.86801 113.67777 5053 ft 239 kts 128°
2026-04-28 12:19 22.85640 113.68927 4647 ft 223 kts 160°
2026-04-28 12:20 22.84272 113.69646 4196 ft 217 kts 151°
2026-04-28 12:20 22.83074 113.70562 3898 ft 202 kts 153°
2026-04-28 12:20 22.81876 113.71231 3610 ft 186 kts 158°
2026-04-28 12:20 22.80754 113.71818 3361 ft 172 kts 158°
2026-04-28 12:21 22.79695 113.72392 3147 ft 170 kts 158°
2026-04-28 12:21 22.78631 113.72958 2931 ft 171 kts 159°
2026-04-28 12:21 22.77556 113.73539 2731 ft 173 kts 155°
2026-04-28 12:21 22.76513 113.74147 2460 ft 172 kts 154°
2026-04-28 12:22 22.75460 113.74754 2212 ft 169 kts 156°
2026-04-28 12:22 22.74429 113.75325 1906 ft 170 kts 153°
2026-04-28 12:22 22.73382 113.75912 1638 ft 168 kts 154°
2026-04-28 12:22 22.72337 113.76462 1370 ft 168 kts 153°
2026-04-28 12:23 22.71300 113.77067 1135 ft 167 kts 155°
2026-04-28 12:23 22.70257 113.77589 894 ft 165 kts 153°
2026-04-28 12:23 22.69307 113.78132 885 ft 143 kts 153°
2026-04-28 12:23 22.68476 113.78585 777 ft 125 kts 151°
2026-04-28 12:24 22.67711 113.79011 566 ft 119 kts 156°
2026-04-28 12:24 22.66962 113.79420 397 ft 124 kts 154°
2026-04-28 12:24 22.66178 113.79844 256 ft 127 kts 154°
2026-04-28 12:24 22.65642 113.80125 148 ft 127 kts 154°
2026-04-28 12:25 22.64627 113.80676 14 ft 107 kts 153°
2026-04-28 12:25 22.64098 113.80967 15 ft 64 kts 153°
2026-04-28 12:25 22.63904 113.81048 14 ft 24 kts 189°
2026-04-28 12:25 22.63772 113.81051 15 ft 14 kts 181°
2026-04-28 12:26 22.63684 113.81021 16 ft 14 kts 237°
2026-04-28 12:26 22.63641 113.80931 14 ft 13 kts 248°
2026-04-28 12:26 22.63608 113.80845 16 ft 8 kts 243°
2026-04-28 12:26 22.63604 113.80837 15 ft 0 kts 243°